Location: Cointrin
(46.2167°N, 6.1167°E)
Time: 19:22:37
(UTC+00:00)

NOSS 0 Rocket - Pass Details

Date: 08 February 2023
Orbit: 934 x 955 km, 70.0° (Epoch: 22 March)

Event Time Altitude Azimuth Distance (km) Brightness Sun altitude
Rises 18:44:15 0° 195° (SSW) 3,607 7.2 -20.1°
Reaches altitude 10° 18:46:47 10° 192° (SSW) 2,669 6.4 -20.5°
Maximum altitude 18:52:54 63° 113° (ESE) 1,057 3.9 -21.6°
Enters shadow 18:56:17 28° 41° (NE) 1,725 4.9 -22.2°
